TimeCDT,TemperatureF,Dew PointF,Humidity,Sea Level PressureIn,VisibilityMPH,Wind Direction,Wind SpeedMPH,Gust SpeedMPH,PrecipitationIn,Events,Conditions,WindDirDegrees,DateUTC
12:53 AM,64.0,54.0,70,29.91,-9999.0,Calm,Calm,-,N/A,,Unknown,0,2013-09-30 05:53:00
1:53 AM,64.0,54.0,70,29.90,-9999.0,WNW,4.6,-,N/A,,Unknown,300,2013-09-30 06:53:00
2:53 AM,64.9,53.1,65,29.89,-9999.0,WNW,4.6,-,N/A,,Unknown,300,2013-09-30 07:53:00
3:53 AM,63.0,52.0,67,29.87,-9999.0,Calm,Calm,-,N/A,,Unknown,0,2013-09-30 08:53:00
4:53 AM,60.1,52.0,75,29.86,-9999.0,Calm,Calm,-,N/A,,Unknown,0,2013-09-30 09:53:00
5:53 AM,59.0,52.0,78,29.86,-9999.0,Calm,Calm,-,N/A,,Unknown,0,2013-09-30 10:53:00
6:53 AM,59.0,51.1,75,29.86,-9999.0,WNW,3.5,-,N/A,,Unknown,300,2013-09-30 11:53:00
7:53 AM,57.0,51.1,81,29.87,-9999.0,Calm,Calm,-,N/A,,Unknown,0,2013-09-30 12:53:00
8:53 AM,68.0,53.1,59,29.87,-9999.0,Calm,Calm,-,N/A,,Unknown,0,2013-09-30 13:53:00
9:53 AM,71.1,54.0,55,29.87,-9999.0,Calm,Calm,-,N/A,,Unknown,0,2013-09-30 14:53:00
10:53 AM,77.0,51.1,40,29.86,-9999.0,SW,6.9,-,N/A,,Unknown,220,2013-09-30 15:53:00
11:53 AM,81.0,53.1,38,29.85,-9999.0,SW,11.5,-,N/A,,Unknown,220,2013-09-30 16:53:00
12:53 PM,86.0,50.0,29,29.82,-9999.0,SW,15.0,18.4,N/A,,Unknown,220,2013-09-30 17:53:00
1:53 PM,89.1,45.0,22,29.78,-9999.0,SW,10.4,-,N/A,,Unknown,220,2013-09-30 18:53:00
2:53 PM,91.0,44.1,20,29.74,-9999.0,South,8.1,-,N/A,,Unknown,190,2013-09-30 19:53:00
3:53 PM,91.9,42.1,18,29.72,-9999.0,South,5.8,-,N/A,,Unknown,190,2013-09-30 20:53:00
4:53 PM,91.9,45.0,20,29.71,-9999.0,South,10.4,-,N/A,,Unknown,180,2013-09-30 21:53:00
5:53 PM,91.9,43.0,18,29.71,-9999.0,ESE,10.4,-,N/A,,Unknown,120,2013-09-30 22:53:00
6:53 PM,89.1,46.9,23,29.72,-9999.0,ESE,9.2,-,N/A,,Unknown,120,2013-09-30 23:53:00
7:53 PM,81.0,54.0,39,29.75,-9999.0,SE,8.1,-,N/A,,Unknown,130,2013-10-01 00:53:00
8:53 PM,75.9,55.0,48,29.75,-9999.0,ESE,3.5,-,N/A,,Unknown,110,2013-10-01 01:53:00
9:53 PM,73.9,57.0,55,29.77,-9999.0,ENE,4.6,-,N/A,,Unknown,70,2013-10-01 02:53:00
10:53 PM,72.0,57.9,61,29.77,-9999.0,ENE,4.6,-,N/A,,Unknown,70,2013-10-01 03:53:00
11:53 PM,71.1,59.0,66,29.77,-9999.0,NNE,4.6,-,N/A,,Unknown,20,2013-10-01 04:53:00